Malaysia Virtual Airlines Airport Information Service

Singapore Changi Airport

ICAO: WSSS Country: Singapore
Latitude: 1.35019 Longitude: 103.994
Latest Arrival : MH611 (WMKK-WSSS) Latest Departure : AK700 (WSSS-WMKK)


WX CaptureLIVE
Data provided by noaa.gov | Fetched at 05:11:47

METAR : WSSS 290430Z 22009KT 190V260 9999 SCT018 BKN300 31/22 Q1008 NOSIG

TAF : WSSS 282300Z 2900/3006 27011KT 9999 FEW015 SCT020


Runway Data for WSSS
Data provided by openaviationdata.com

Runway ID Mag Var Hdg Length Elevation Surface ILS Freq ILS Id ILS Slope
02L 0 22° 13152 ft 22 ft Bituminous 110.9 ICW 3
02C 0 22° 13179 ft 22 ft Bituminous 108.3 ICE 3
20R 0 202° 13152 ft 22 ft Bituminous 108.9 ICH 3
20C 0 202° 13179 ft 22 ft Bituminous 109.7 ICC 3

Singapore Changi Airport, Singapore
Use only for reference purposes



Not for navigational purposes.